Theta_e
344 342 340 342 341 339 337 335 333 333 333 334 335 337 338 340 338 336 340 342 343 343 343 343 343 343 343 342 343 342 342 342 342
342 342 339 342 340 338 337 334 332 331 330 331 332 334 336 339 338 337 338 339 342 342 342 342 342 342 340 337 338 339 341 342 342
340 341 341 340 340 337 333 331 330 329 329 329 326 331 333 335 335 335 337 337 339 340 341 341 341 341 341 341 338 338 339 339 341
341 340 337 340 338 334 331 328 328 328 328 328 327 327 329 330 330 331 334 334 337 337 337 339 339 339 340 340 340 338 337 337 337
336 337 335 337 336 331 328 325 325 326 327 327 324 325 326 328 328 329 330 331 332 333 334 336 337 337 338 337 339 339 339 337 336
336 335 333 335 333 328 326 325 325 324 324 321 323 324 326 326 326 327 328 328 328 328 329 331 332 334 334 335 335 336 337 337 337
331 331 328 332 329 325 326 326 323 321 320 322 325 326 325 325 326 326 326 326 325 325 325 325 326 327 328 330 332 333 334 334 334
326 326 326 329 325 320 316 317 319 321 322 322 325 325 323 324 325 324 324 323 323 322 322 323 322 322 322 322 323 326 328 330 331
325 323 324 325 320 311 311 313 318 320 320 321 322 321 321 322 321 320 321 322 322 322 321 321 320 320 320 320 321 321 321 322 325
323 321 319 317 311 309 310 311 313 314 316 318 318 317 317 318 317 318 319 320 321 321 320 319 319 318 317 317 318 319 318 318 319
320 318 315 311 310 310 310 311 311 311 311 312 313 313 314 314 316 316 317 317 318 318 318 317 317 317 316 315 315 315 315 316 317
317 314 311 310 310 310 310 310 310 311 311 311 311 311 311 311 312 314 314 313 314 315 315 315 315 314 314 313 313 313 313 314 314
312 311 310 309 309 309 310 310 310 310 311 311 310 310 310 310 310 310 311 311 312 308 308 312 313 313 313 312 311 311 311 311 311
311 310 310 309 310 310 310 311 311 311 310 310 310 311 310 310 309 309 310 308 309 309 305 305 305 310 311 310 311 310 310 309 309
310 310 310 310 310 311 311 311 311 311 311 310 311 310 310 310 310 309 308 309 308 308 308 308 307 304 304 306 309 309 309 309 309
309 310 309 311 311 311 311 311 312 312 311 311 311 310 310 310 309 309 308 308 308 308 307 307 306 306 304 304 303 304 307 307 307
308 308 309 311 312 312 312 312 312 312 311 312 312 313 311 309 309 308 308 308 307 306 305 305 305 305 305 303 302 302 302 305 306
308 308 308 310 311 312 312 313 313 312 311 310 311 312 312 312 309 308 308 307 307 306 305 304 304 304 304 303 303 302 300 301 303
309 306 306 307 308 308 309 310 312 312 311 310 310 310 311 312 313 309 308 307 307 306 305 304 303 303 302 301 300 298 296 297 301
315 310 308 307 307 307 308 309 310 311 311 312 311 310 310 310 312 313 311 307 305 305 305 304 303 303 302 301 299 297 296 299 300
Wind_Speed
12 16 14 15 17 16 16 17 17 16 17 17 17 20 20 20 19 19 21 23 25 26 25 25 25 27 27 28 28 28 27 28 27
15 17 14 16 17 16 15 15 16 16 16 16 17 19 20 19 22 22 20 21 24 25 26 27 26 26 27 29 28 26 27 27 27
15 18 17 16 17 15 15 15 15 15 16 16 16 19 17 18 20 20 20 23 23 25 27 28 28 26 26 27 27 27 27 26 27
16 17 15 15 16 15 14 14 15 15 15 16 17 21 19 18 18 18 18 20 22 24 24 27 28 29 29 28 27 26 25 26 26
13 14 14 14 15 14 14 14 15 15 16 16 19 22 19 18 19 19 18 21 21 22 24 24 26 26 26 27 29 27 26 25 25
13 13 16 15 15 14 13 15 16 17 17 18 20 17 17 17 18 18 20 22 22 22 22 23 24 24 25 25 24 26 28 28 26
12 15 16 15 15 14 14 15 17 15 15 15 16 16 17 18 19 19 20 21 22 23 24 24 24 24 23 24 25 25 25 26 25
14 15 15 14 14 11 12 12 11 13 13 13 15 16 16 18 18 19 19 20 21 22 23 23 24 24 24 24 24 23 23 23 24
15 14 14 14 11 13 11 11 12 13 14 13 14 14 15 16 16 17 18 19 20 22 22 23 23 23 24 24 24 23 23 23 23
15 14 13 13 14 14 13 13 12 13 12 12 12 13 14 15 14 15 18 18 19 20 20 21 21 21 22 23 22 22 22 22 22
14 14 13 14 14 15 15 14 13 12 11 11 10 11 12 12 13 13 15 18 17 18 18 19 19 20 20 20 21 20 21 21 21
14 15 15 15 15 15 15 13 13 12 11 11 10 10 11 11 11 10 11 12 16 16 15 15 16 16 17 18 18 18 19 19 19
15 16 17 16 16 15 15 14 13 12 10 9 8 9 8 9 9 8 8 8 7 9 11 12 12 12 13 14 14 15 16 16 17
16 16 16 17 15 14 14 12 11 11 9 8 7 6 6 6 7 7 6 5 5 5 6 7 8 9 10 11 12 12 12 13 14
14 15 16 16 14 14 13 13 11 10 9 8 6 5 5 5 5 5 5 4 4 2 2 3 4 5 6 7 9 9 10 11 11
20 14 16 16 16 15 14 13 12 10 9 8 5 4 4 5 6 6 5 4 3 2 1 0 1 3 6 6 6 7 9 10 12
19 16 16 14 14 14 14 12 12 7 10 7 6 4 6 6 7 7 7 7 5 5 4 2 1 1 2 6 7 8 10 11 12
18 16 13 12 13 14 14 13 13 10 10 8 4 2 5 6 6 7 7 7 7 6 4 4 2 1 3 5 8 13 14 13 12
19 10 8 8 12 15 17 16 12 9 10 9 10 8 5 4 4 7 7 8 8 8 7 6 5 5 5 8 11 14 14 13 12
34 22 9 10 9 11 15 16 15 14 10 12 9 10 8 9 8 6 7 8 9 9 9 8 8 8 8 9 11 14 13 10 11
Wind_Direction
145 126 116 119 110 101 96 90 84 82 82 86 92 82 74 74 74 70 64 61 60 63 65 66 70 71 68 66 65 64 62 61 60
138 126 121 126 116 110 98 91 86 84 81 82 94 91 85 78 72 70 69 65 62 63 65 66 68 70 69 67 65 63 62 62 62
132 129 121 125 117 110 103 95 91 86 85 83 91 91 85 83 77 73 68 64 63 63 63 64 66 68 70 69 67 64 62 62 60
127 129 124 122 117 111 105 100 98 96 91 88 88 92 86 83 79 77 72 71 66 66 65 63 65 66 65 65 65 67 64 63 60
136 135 132 130 121 114 107 105 106 104 102 99 95 85 84 83 81 79 79 72 71 69 65 66 63 66 65 64 62 63 64 64 63
137 146 138 133 122 115 113 112 111 108 109 108 94 92 88 85 85 84 83 81 78 76 72 68 66 64 63 62 62 61 60 60 61
150 144 139 136 124 117 119 122 115 107 108 104 92 95 93 90 88 88 86 84 82 79 77 74 71 68 66 62 62 60 59 58 56
150 146 142 144 128 127 119 114 119 118 117 111 106 101 97 93 90 89 85 82 81 80 77 75 72 70 67 64 61 59 59 57 55
163 159 155 152 146 139 132 128 124 120 116 114 111 108 106 104 99 94 88 86 83 82 79 77 74 70 67 64 62 60 58 56 55
169 164 160 157 148 144 137 130 125 119 117 115 112 108 106 107 104 99 94 91 88 84 82 78 75 71 68 65 62 61 58 54 52
172 166 161 155 152 150 144 140 133 122 117 113 114 113 111 110 111 108 102 97 90 85 78 75 72 69 65 63 61 56 56 52 49
173 169 162 159 157 152 147 145 139 134 130 123 121 117 117 115 114 118 111 98 103 93 84 78 72 68 63 59 56 54 50 48 46
171 169 165 162 161 159 156 155 150 143 139 137 133 127 128 124 124 123 124 123 104 88 92 81 71 64 60 54 51 49 45 44 42
176 171 170 166 166 166 165 160 157 154 152 152 149 147 144 140 143 144 138 132 109 97 79 70 67 62 50 44 42 42 39 35 30
179 173 170 172 171 176 175 170 166 164 160 158 159 169 173 174 177 173 168 173 155 127 93 50 39 33 30 33 35 26 19 14 10
185 177 177 179 184 185 184 178 166 158 165 156 171 172 193 200 203 205 203 203 203 211 235 81 61 5 356 354 2 9 8 359 351
190 192 184 193 188 187 187 186 174 176 184 207 199 199 199 204 205 210 212 216 209 208 201 194 135 41 3 335 331 329 327 330 326
192 197 193 206 196 195 195 201 195 183 194 201 215 191 241 191 206 209 210 215 216 217 214 213 212 285 301 321 321 310 314 317 321
177 172 201 216 223 210 213 217 212 202 200 206 230 244 280 234 195 220 226 223 219 214 214 223 244 268 291 299 310 306 306 308 314
196 202 217 219 245 247 239 229 216 219 222 215 212 224 236 248 267 262 192 235 226 224 229 238 253 273 289 296 301 300 305 307 308